,,PA_Meas_PMT16A,,PR_Meas_QMR101_102,,RH_Meas_QMH101,,SR_Meas_QMS101,,TA_Meas_QMH101,,GenWind,,GenWind,
time,status,PA,status,PR,status,RH,status,SR,status,TA,status,DirAvg,status,SpdAvg,
2011-07-19, 00:00:04,VALID,917.343,VALID,0,VALID,96.4591,VALID,0,VALID,20.1693,VALID,114,VALID,0.355859,
2011-07-19, 00:01:04,VALID,917.319,VALID,0,VALID,96.4515,VALID,0,VALID,20.1498,VALID,114,VALID,0.246875,
2011-07-19, 00:02:04,VALID,917.319,VALID,0,VALID,96.3829,VALID,0,VALID,20.0913,VALID,114,VALID,0.0835937,
2011-07-19, 00:03:04,VALID,917.291,VALID,0,VALID,96.2533,VALID,0,VALID,20.0133,VALID,114,VALID,0.175,
2011-07-19, 00:04:04,VALID,917.319,VALID,0,VALID,96.36,VALID,0,VALID,19.9938,VALID,114,VALID,0.430078,
2011-07-19, 00:05:04,VALID,917.332,VALID,0,VALID,96.4057,VALID,0,VALID,20.0538,VALID,114,VALID,0.328516,
2011-07-19, 00:06:04,VALID,917.328,VALID,0,VALID,96.4743,VALID,0,VALID,20.0913,VALID,114,VALID,0.606641,
2011-07-19, 00:07:04,VALID,917.329,VALID,0,VALID,96.5734,VALID,0,VALID,20.1888,VALID,114,VALID,0.688672,
2011-07-19, 00:08:04,VALID,917.309,VALID,0,VALID,96.5734,VALID,0,VALID,20.2278,VALID,114,VALID,0.708203,
2011-07-19, 00:09:04,VALID,917.298,VALID,0,VALID,96.5201,VALID,0,VALID,20.2278,VALID,114,VALID,0.678125,
2011-07-19, 00:10:04,VALID,917.304,VALID,0,VALID,96.4286,VALID,0,VALID,20.1888,VALID,114,VALID,0.642969,
2011-07-19, 00:11:04,VALID,917.293,VALID,0,VALID,96.3752,VALID,0,VALID,20.1303,VALID,114,VALID,0.392578,
2011-07-19, 00:12:04,VALID,917.282,VALID,0,VALID,96.3066,VALID,0,VALID,20.1123,VALID,114,VALID,0.321875,
2011-07-19, 00:13:04,VALID,917.272,VALID,0,VALID,96.3371,VALID,0,VALID,20.1123,VALID,114,VALID,0.550781,
2011-07-19, 00:14:04,VALID,917.265,VALID,0,VALID,96.3371,VALID,0,VALID,20.0913,VALID,114,VALID,1.15078,
2011-07-19, 00:15:04,VALID,917.263,VALID,0,VALID,96.3829,VALID,0,VALID,20.0913,VALID,114,VALID,1.02109,
2011-07-19, 00:16:04,VALID,917.256,VALID,0,VALID,96.2533,VALID,0,VALID,20.0328,VALID,114,VALID,1.06094,
2011-07-19, 00:17:04,VALID,917.228,VALID,0,VALID,96.1541,VALID,0,VALID,19.9353,VALID,114,VALID,0.944141,
2011-07-19, 00:18:04,VALID,917.232,VALID,0,VALID,96.1846,VALID,0,VALID,19.9158,VALID,114,VALID,1.11172,
2011-07-19, 00:19:04,VALID,917.262,VALID,0,VALID,96.2456,VALID,0,VALID,19.9353,VALID,114,VALID,1.05664,
2011-07-19, 00:20:04,VALID,917.253,VALID,0,VALID,96.2533,VALID,0,VALID,19.9158,VALID,114,VALID,0.761328,
2011-07-19, 00:21:04,VALID,917.275,VALID,0,VALID,96.2228,VALID,0,VALID,19.8768,VALID,114,VALID,1.08281,
2011-07-19, 00:22:04,VALID,917.274,VALID,0,VALID,96.1313,VALID,0,VALID,19.8198,VALID,114,VALID,1.05508,
2011-07-19, 00:23:04,VALID,917.249,VALID,0,VALID,96.1999,VALID,0,VALID,19.7793,VALID,114,VALID,0.976953,
2011-07-19, 00:24:04,VALID,917.26,VALID,0,VALID,96.1694,VALID,0,VALID,19.7208,VALID,114,VALID,0.994531,
2011-07-19, 00:25:04,VALID,917.266,VALID,0,VALID,96.1846,VALID,0,VALID,19.6623,VALID,114,VALID,0.509375,
2011-07-19, 00:26:04,VALID,917.226,VALID,0,VALID,96.1923,VALID,0,VALID,19.6443,VALID,114,VALID,0.686328,
2011-07-19, 00:27:04,VALID,917.226,VALID,0,VALID,96.3524,VALID,0,VALID,19.6623,VALID,127,VALID,0.558203,
2011-07-19, 00:28:04,VALID,917.172,VALID,0,VALID,96.4362,VALID,0,VALID,19.7013,VALID,128,VALID,1.07617,
2011-07-19, 00:29:04,VALID,917.151,VALID,0,VALID,96.4591,VALID,0,VALID,19.7013,VALID,128,VALID,0.497656,
2011-07-19, 00:30:04,VALID,917.166,VALID,0,VALID,96.4896,VALID,0,VALID,19.7223,VALID,128,VALID,1.00195,
2011-07-19, 00:31:04,VALID,917.142,VALID,0,VALID,96.5429,VALID,0,VALID,19.7013,VALID,128,VALID,0.752344,
2011-07-19, 00:32:04,VALID,917.12,VALID,0,VALID,96.5506,VALID,0,VALID,19.7418,VALID,128,VALID,0.730469,
2011-07-19, 00:33:04,VALID,917.138,VALID,0,VALID,96.5582,VALID,0,VALID,19.7223,VALID,128,VALID,0.686328,
2011-07-19, 00:34:04,VALID,917.126,VALID,0,VALID,96.5887,VALID,0,VALID,19.7028,VALID,128,VALID,0.433594,
2011-07-19, 00:35:04,VALID,917.113,VALID,0,VALID,96.5734,VALID,0,VALID,19.7028,VALID,128,VALID,0.696875,
2011-07-19, 00:36:04,VALID,917.083,VALID,0,VALID,96.6497,VALID,0,VALID,19.7418,VALID,128,VALID,0.888281,
2011-07-19, 00:37:04,VALID,917.062,VALID,0,VALID,96.6573,VALID,0,VALID,19.7613,VALID,128,VALID,1.04336,
2011-07-19, 00:38:04,VALID,917.032,VALID,0,VALID,96.6725,VALID,0,VALID,19.7403,VALID,128,VALID,0.85,
2011-07-19, 00:39:04,VALID,917.032,VALID,0,VALID,96.6954,VALID,0,VALID,19.7808,VALID,128,VALID,1.0543,
2011-07-19, 00:40:04,VALID,917.022,VALID,0,VALID,96.6573,VALID,0,VALID,19.7613,VALID,128,VALID,0.85,
2011-07-19, 00:41:04,VALID,916.961,VALID,0,VALID,96.6192,VALID,0,VALID,19.7223,VALID,128,VALID,0.616016,
2011-07-19, 00:42:04,VALID,916.977,VALID,0,VALID,96.6802,VALID,0,VALID,19.7613,VALID,128,VALID,0.709375,
2011-07-19, 00:43:04,VALID,916.976,VALID,0,VALID,96.6725,VALID,0,VALID,19.7223,VALID,128,VALID,0.582812,
2011-07-19, 00:44:04,VALID,916.971,VALID,0,VALID,96.7335,VALID,0,VALID,19.7613,VALID,125,VALID,0.801953,
2011-07-19, 00:45:04,VALID,916.988,VALID,0,VALID,96.7259,VALID,0,VALID,19.7808,VALID,125,VALID,0.823047,
2011-07-19, 00:46:04,VALID,916.972,VALID,0,VALID,96.7411,VALID,0,VALID,19.8003,VALID,125,VALID,0.875391,
2011-07-19, 00:47:04,VALID,917.034,VALID,0,VALID,96.7107,VALID,0,VALID,19.8003,VALID,125,VALID,1.00039,
2011-07-19, 00:48:04,VALID,916.979,VALID,0,VALID,96.7488,VALID,0,VALID,19.8198,VALID,125,VALID,1.14844,
2011-07-19, 00:49:04,VALID,917.018,VALID,0,VALID,96.7488,VALID,0,VALID,19.8393,VALID,125,VALID,0.847266,
2011-07-19, 00:50:04,VALID,917.029,VALID,0,VALID,96.8098,VALID,0,VALID,19.9173,VALID,125,VALID,1.39023,
2011-07-19, 00:51:04,VALID,916.992,VALID,0,VALID,96.7945,VALID,0,VALID,19.9173,VALID,125,VALID,0.814062,
2011-07-19, 00:52:04,VALID,917.018,VALID,0,VALID,96.7793,VALID,0,VALID,19.9368,VALID,125,VALID,1.03125,
2011-07-19, 00:53:04,VALID,917.005,VALID,0,VALID,96.7716,VALID,0,VALID,19.9563,VALID,124,VALID,0.868359,
2011-07-19, 00:54:04,VALID,916.992,VALID,0,VALID,96.8021,VALID,0,VALID,19.9758,VALID,125,VALID,0.45625,
2011-07-19, 00:55:04,VALID,916.988,VALID,0,VALID,96.7488,VALID,0,VALID,19.9353,VALID,125,VALID,0.930859,
2011-07-19, 00:56:04,VALID,917.007,VALID,0,VALID,96.7107,VALID,0,VALID,19.9158,VALID,125,VALID,0.680469,
2011-07-19, 00:57:04,VALID,916.979,VALID,0,VALID,96.6954,VALID,0,VALID,19.8978,VALID,125,VALID,0.553906,
2011-07-19, 00:58:04,VALID,916.962,VALID,0,VALID,96.6725,VALID,0,VALID,19.8588,VALID,125,VALID,0.387109,
2011-07-19, 00:59:04,VALID,916.933,VALID,0,VALID,96.6497,VALID,0,VALID,19.8588,VALID,125,VALID,0.349609,
2011-07-19, 01:00:04,VALID,916.92,VALID,0,VALID,96.5887,VALID,0,VALID,19.8003,VALID,125,VALID,0.301953,
2011-07-19, 01:01:04,VALID,916.897,VALID,0,VALID,96.5506,VALID,0,VALID,19.7613,VALID,125,VALID,0.336719,
2011-07-19, 01:02:04,VALID,916.902,VALID,0,VALID,96.5506,VALID,0,VALID,19.7418,VALID,125,VALID,0.667188,
2011-07-19, 01:03:04,VALID,916.905,VALID,0,VALID,96.6115,VALID,0,VALID,19.7418,VALID,125,VALID,0.505078,
2011-07-19, 01:04:04,VALID,916.897,VALID,0,VALID,96.6344,VALID,0,VALID,19.7223,VALID,125,VALID,0.723828,
2011-07-19, 01:05:04,VALID,916.9,VALID,0,VALID,96.6039,VALID,0,VALID,19.7418,VALID,125,VALID,0.674609,
2011-07-19, 01:06:04,VALID,916.889,VALID,0,VALID,96.5353,VALID,0,VALID,19.7028,VALID,125,VALID,0.263281,
2011-07-19, 01:07:04,VALID,916.883,VALID,0,VALID,96.5963,VALID,0,VALID,19.7028,VALID,125,VALID,0.829297,
2011-07-19, 01:08:04,VALID,916.902,VALID,0,VALID,96.6115,VALID,0,VALID,19.7028,VALID,125,VALID,0.442578,
2011-07-19, 01:09:04,VALID,916.917,VALID,0,VALID,96.5429,VALID,0,VALID,19.6443,VALID,125,VALID,0.765625,
2011-07-19, 01:10:04,VALID,916.941,VALID,0,VALID,96.5048,VALID,0,VALID,19.5648,VALID,125,VALID,0.545313,
2011-07-19, 01:11:04,VALID,916.905,VALID,0,VALID,96.5277,VALID,0,VALID,19.5468,VALID,125,VALID,0.671875,
2011-07-19, 01:12:04,VALID,916.912,VALID,0,VALID,96.5277,VALID,0,VALID,19.5273,VALID,125,VALID,0.514453,
2011-07-19, 01:13:04,VALID,916.888,VALID,0,VALID,96.5429,VALID,0,VALID,19.5078,VALID,125,VALID,0.667578,
2011-07-19, 01:14:04,VALID,916.891,VALID,0,VALID,96.5582,VALID,0,VALID,19.4883,VALID,125,VALID,0.555078,
2011-07-19, 01:15:04,VALID,916.87,VALID,0,VALID,96.5811,VALID,0,VALID,19.4883,VALID,125,VALID,0.458984,
2011-07-19, 01:16:04,VALID,916.905,VALID,0,VALID,96.5963,VALID,0,VALID,19.4688,VALID,125,VALID,0.652344,
2011-07-19, 01:17:04,VALID,916.879,VALID,0,VALID,96.6497,VALID,0,VALID,19.4688,VALID,125,VALID,0.851172,
2011-07-19, 01:18:04,VALID,916.841,VALID,0,VALID,96.6497,VALID,0,VALID,19.4883,VALID,121,VALID,1.05547,
2011-07-19, 01:19:04,VALID,916.847,VALID,0,VALID,96.7716,VALID,0,VALID,19.5663,VALID,119,VALID,1.10273,
2011-07-19, 01:20:04,VALID,916.835,VALID,0,VALID,96.7335,VALID,0,VALID,19.5663,VALID,117,VALID,0.828125,
2011-07-19, 01:21:04,VALID,916.812,VALID,0,VALID,96.7183,VALID,0,VALID,19.5663,VALID,117,VALID,1.10312,
2011-07-19, 01:22:04,VALID,916.801,VALID,0,VALID,96.6878,VALID,0,VALID,19.5468,VALID,114,VALID,0.962891,
2011-07-19, 01:23:04,VALID,916.795,VALID,0,VALID,96.6649,VALID,0,VALID,19.5063,VALID,119,VALID,0.892578,
2011-07-19, 01:24:04,VALID,916.79,VALID,0,VALID,96.6954,VALID,0,VALID,19.5273,VALID,123,VALID,0.527734,
2011-07-19, 01:25:04,VALID,916.751,VALID,0,VALID,96.6802,VALID,0,VALID,19.5273,VALID,130,VALID,1.07969,
2011-07-19, 01:26:04,VALID,916.749,VALID,0,VALID,96.6725,VALID,0,VALID,19.5273,VALID,130,VALID,0.482422,
2011-07-19, 01:27:04,VALID,916.756,VALID,0,VALID,96.6192,VALID,0,VALID,19.4688,VALID,130,VALID,0.967578,
2011-07-19, 01:28:04,VALID,916.72,VALID,0,VALID,96.6115,VALID,0,VALID,19.4298,VALID,130,VALID,0.730078,
2011-07-19, 01:29:04,VALID,916.718,VALID,0,VALID,96.6268,VALID,0,VALID,19.4298,VALID,130,VALID,0.744531,
2011-07-19, 01:30:04,VALID,916.701,VALID,0,VALID,96.6192,VALID,0,VALID,19.4088,VALID,130,VALID,0.690625,
2011-07-19, 01:31:04,VALID,916.732,VALID,0,VALID,96.6344,VALID,0,VALID,19.3908,VALID,130,VALID,0.734375,
2011-07-19, 01:32:04,VALID,916.715,VALID,0,VALID,96.6192,VALID,0,VALID,19.3713,VALID,130,VALID,0.558984,
2011-07-19, 01:33:04,VALID,916.745,VALID,0,VALID,96.6039,VALID,0,VALID,19.3113,VALID,130,VALID,0.459375,
2011-07-19, 01:34:04,VALID,916.751,VALID,0,VALID,96.6039,VALID,0,VALID,19.2918,VALID,130,VALID,0.64375,
2011-07-19, 01:35:04,VALID,916.755,VALID,0,VALID,96.6039,VALID,0,VALID,19.2933,VALID,130,VALID,0.410937,
2011-07-19, 01:36:04,VALID,916.773,VALID,0,VALID,96.6497,VALID,0,VALID,19.2933,VALID,141,VALID,0.716016,
2011-07-19, 01:37:04,VALID,916.753,VALID,0,VALID,96.7335,VALID,0,VALID,19.3323,VALID,141,VALID,1.13242,
2011-07-19, 01:38:04,VALID,916.771,VALID,0,VALID,96.7488,VALID,0,VALID,19.3113,VALID,141,VALID,0.301953,
2011-07-19, 01:39:04,VALID,916.744,VALID,0,VALID,96.7335,VALID,0,VALID,19.3518,VALID,141,VALID,0.85625,
2011-07-19, 01:40:04,VALID,916.744,VALID,0,VALID,96.7488,VALID,0,VALID,19.3323,VALID,141,VALID,0.832031,
2011-07-19, 01:41:04,VALID,916.717,VALID,0,VALID,96.7716,VALID,0,VALID,19.3323,VALID,141,VALID,0.69375,
2011-07-19, 01:42:04,VALID,916.718,VALID,0,VALID,96.8098,VALID,0,VALID,19.3518,VALID,141,VALID,0.883984,
2011-07-19, 01:43:04,VALID,916.682,VALID,0,VALID,96.8021,VALID,0,VALID,19.3323,VALID,141,VALID,0.639844,
2011-07-19, 01:44:04,VALID,916.655,VALID,0,VALID,96.8326,VALID,0,VALID,19.3518,VALID,141,VALID,0.722656,
2011-07-19, 01:45:04,VALID,916.641,VALID,0,VALID,96.8403,VALID,0,VALID,19.3713,VALID,141,VALID,0.585547,
2011-07-19, 01:46:04,VALID,916.647,VALID,0,VALID,96.8707,VALID,0,VALID,19.3923,VALID,131,VALID,0.868359,
2011-07-19, 01:47:04,VALID,916.649,VALID,0,VALID,96.8098,VALID,0,VALID,19.3713,VALID,131,VALID,0.771875,
2011-07-19, 01:48:04,VALID,916.628,VALID,0,VALID,96.6725,VALID,0,VALID,19.2738,VALID,131,VALID,0.565625,
2011-07-19, 01:49:04,VALID,916.641,VALID,0,VALID,96.5811,VALID,0,VALID,19.1568,VALID,131,VALID,0.828516,
2011-07-19, 01:50:04,VALID,916.645,VALID,0,VALID,96.6115,VALID,0,VALID,19.0774,VALID,131,VALID,0.751562,
2011-07-19, 01:51:04,VALID,916.617,VALID,0,VALID,96.7564,VALID,0,VALID,19.0788,VALID,131,VALID,0.796484,
2011-07-19, 01:52:04,VALID,916.61,VALID,0,VALID,96.8784,VALID,0,VALID,19.1373,VALID,131,VALID,0.966797,
2011-07-19, 01:53:04,VALID,916.599,VALID,0,VALID,96.9622,VALID,0,VALID,19.1958,VALID,131,VALID,0.969922,
2011-07-19, 01:54:04,VALID,916.583,VALID,0,VALID,96.9851,VALID,0,VALID,19.2348,VALID,131,VALID,1.24922,
2011-07-19, 01:55:04,VALID,916.601,VALID,0,VALID,97.008,VALID,0,VALID,19.3128,VALID,131,VALID,1.10391,
2011-07-19, 01:56:04,VALID,916.61,VALID,0,VALID,97.0003,VALID,0,VALID,19.2918,VALID,131,VALID,1.25156,
2011-07-19, 01:57:04,VALID,916.584,VALID,0,VALID,96.9927,VALID,0,VALID,19.3323,VALID,131,VALID,1.29883,
2011-07-19, 01:58:04,VALID,916.621,VALID,0,VALID,96.9775,VALID,0,VALID,19.3323,VALID,131,VALID,1.15781,
2011-07-19, 01:59:04,VALID,916.617,VALID,0,VALID,96.9851,VALID,0,VALID,19.3518,VALID,131,VALID,0.848437,
2011-07-19, 02:00:04,VALID,916.62,VALID,0,VALID,96.9698,VALID,0,VALID,19.3518,VALID,131,VALID,1.34531,
2011-07-19, 02:01:04,VALID,916.611,VALID,0,VALID,96.9775,VALID,0,VALID,19.3533,VALID,131,VALID,1.35039,
2011-07-19, 02:02:04,VALID,916.596,VALID,0,VALID,96.9622,VALID,0,VALID,19.3323,VALID,131,VALID,0.957422,
2011-07-19, 02:03:04,VALID,916.583,VALID,0,VALID,97.0156,VALID,0,VALID,19.3113,VALID,131,VALID,1.13008,
2011-07-19, 02:04:04,VALID,916.563,VALID,0,VALID,97.008,VALID,0,VALID,19.3518,VALID,131,VALID,1.30039,
2011-07-19, 02:05:04,VALID,916.585,VALID,0,VALID,97.0308,VALID,0,VALID,19.3518,VALID,118,VALID,1.23789,
2011-07-19, 02:06:04,VALID,916.581,VALID,0,VALID,97.0385,VALID,0,VALID,19.3323,VALID,118,VALID,0.798828,
2011-07-19, 02:07:04,VALID,916.626,VALID,0,VALID,97.0308,VALID,0,VALID,19.3323,VALID,118,VALID,0.627344,
2011-07-19, 02:08:04,VALID,916.607,VALID,0,VALID,97.0308,VALID,0,VALID,19.3323,VALID,128,VALID,0.634766,
2011-07-19, 02:09:04,VALID,916.589,VALID,0,VALID,96.9927,VALID,0,VALID,19.3128,VALID,128,VALID,0.989062,
2011-07-19, 02:10:04,VALID,916.606,VALID,0,VALID,96.9775,VALID,0,VALID,19.2738,VALID,146,VALID,0.748828,
2011-07-19, 02:11:04,VALID,916.593,VALID,0,VALID,96.9927,VALID,0,VALID,19.2348,VALID,141,VALID,1.19844,
2011-07-19, 02:12:04,VALID,916.595,VALID,0,VALID,97.0385,VALID,0,VALID,19.2558,VALID,136,VALID,1.41289,
2011-07-19, 02:13:04,VALID,916.591,VALID,0,VALID,97.0613,VALID,0,VALID,19.2753,VALID,142,VALID,1.41328,
2011-07-19, 02:14:04,VALID,916.605,VALID,0,VALID,97.1223,VALID,0,VALID,19.2918,VALID,158,VALID,0.758594,
2011-07-19, 02:15:04,VALID,916.6,VALID,0,VALID,97.1223,VALID,0,VALID,19.3113,VALID,120,VALID,0.834766,
2011-07-19, 02:16:04,VALID,916.609,VALID,0,VALID,97.0842,VALID,0,VALID,19.3128,VALID,148,VALID,1.05586,
2011-07-19, 02:17:04,VALID,916.588,VALID,0,VALID,97.0842,VALID,0,VALID,19.2918,VALID,121,VALID,1.07852,
2011-07-19, 02:18:04,VALID,916.576,VALID,0,VALID,97.1299,VALID,0,VALID,19.3113,VALID,112,VALID,1.60625,
2011-07-19, 02:19:04,VALID,916.544,VALID,0,VALID,97.1071,VALID,0,VALID,19.3113,VALID,112,VALID,1.30586,
2011-07-19, 02:20:04,VALID,916.554,VALID,0,VALID,97.0842,VALID,0,VALID,19.2918,VALID,112,VALID,1.11758,
2011-07-19, 02:21:04,VALID,916.542,VALID,0,VALID,97.069,VALID,0.107441,VALID,19.2723,VALID,117,VALID,1.13477,
2011-07-19, 02:22:04,VALID,916.513,VALID,0,VALID,97.1376,VALID,0.107441,VALID,19.2918,VALID,117,VALID,1.38555,
2011-07-19, 02:23:04,VALID,916.561,VALID,0,VALID,97.1071,VALID,0.107441,VALID,19.2723,VALID,117,VALID,1.07031,
2011-07-19, 02:24:04,VALID,916.507,VALID,0,VALID,97.1071,VALID,0,VALID,19.2528,VALID,117,VALID,1.14297,
2011-07-19, 02:25:04,VALID,916.548,VALID,0,VALID,97.1147,VALID,0.107441,VALID,19.2528,VALID,117,VALID,1.00508,
2011-07-19, 02:26:04,VALID,916.537,VALID,0,VALID,97.1223,VALID,0.107441,VALID,19.2543,VALID,123,VALID,1.29531,
2011-07-19, 02:27:04,VALID,916.561,VALID,0,VALID,97.1376,VALID,0,VALID,19.2528,VALID,124,VALID,1.53437,
2011-07-19, 02:28:04,VALID,916.552,VALID,0,VALID,97.1299,VALID,0.107441,VALID,19.2139,VALID,124,VALID,1.45313,
2011-07-19, 02:29:04,VALID,916.536,VALID,0,VALID,97.1299,VALID,0.107441,VALID,19.1944,VALID,124,VALID,1.4543,
2011-07-19, 02:30:04,VALID,916.526,VALID,0,VALID,97.1147,VALID,0.107441,VALID,19.1958,VALID,112,VALID,1.41797,
2011-07-19, 02:31:04,VALID,916.507,VALID,0,VALID,97.1376,VALID,0.107441,VALID,19.1554,VALID,112,VALID,1.29453,
2011-07-19, 02:32:04,VALID,916.508,VALID,0,VALID,97.1604,VALID,0.107441,VALID,19.1359,VALID,112,VALID,1.20313,
2011-07-19, 02:33:04,VALID,916.542,VALID,0,VALID,97.1376,VALID,0.107441,VALID,19.1359,VALID,131,VALID,1.3957,
2011-07-19, 02:34:04,VALID,916.514,VALID,0,VALID,97.1757,VALID,0.107441,VALID,19.1373,VALID,131,VALID,1.47227,
2011-07-19, 02:35:04,VALID,916.521,VALID,0,VALID,97.1681,VALID,0.107441,VALID,19.0969,VALID,131,VALID,1.48711,
2011-07-19, 02:36:04,VALID,916.491,VALID,0,VALID,97.1986,VALID,0.107441,VALID,19.0969,VALID,131,VALID,0.864062,
2011-07-19, 02:37:04,VALID,916.521,VALID,0,VALID,97.2062,VALID,0.107441,VALID,19.0969,VALID,123,VALID,1.1918,
2011-07-19, 02:38:04,VALID,916.508,VALID,0,VALID,97.1986,VALID,0.107441,VALID,19.0969,VALID,122,VALID,0.933984,
2011-07-19, 02:39:04,VALID,916.524,VALID,0,VALID,97.2367,VALID,0.107441,VALID,19.0969,VALID,129,VALID,1.08789,
2011-07-19, 02:40:04,VALID,916.52,VALID,0,VALID,97.2443,VALID,0,VALID,19.0969,VALID,139,VALID,1.22773,
2011-07-19, 02:41:04,VALID,916.487,VALID,0,VALID,97.2443,VALID,0,VALID,19.0969,VALID,137,VALID,0.713281,
2011-07-19, 02:42:04,VALID,916.478,VALID,0,VALID,97.2519,VALID,0,VALID,19.0774,VALID,137,VALID,1.29414,
2011-07-19, 02:43:04,VALID,916.475,VALID,0,VALID,97.2443,VALID,0,VALID,19.0983,VALID,137,VALID,1.09648,
2011-07-19, 02:44:04,VALID,916.444,VALID,0,VALID,97.2367,VALID,0.107441,VALID,19.0579,VALID,137,VALID,0.957422,
2011-07-19, 02:45:04,VALID,916.437,VALID,0,VALID,97.2138,VALID,0.107441,VALID,19.0384,VALID,137,VALID,0.809375,
2011-07-19, 02:46:04,VALID,916.451,VALID,0,VALID,97.2595,VALID,0.107441,VALID,19.0384,VALID,137,VALID,0.526563,
2011-07-19, 02:47:04,VALID,916.444,VALID,0,VALID,97.2443,VALID,0.107441,VALID,19.0384,VALID,137,VALID,0.695703,
2011-07-19, 02:48:04,VALID,916.462,VALID,0,VALID,97.229,VALID,0.107441,VALID,19.0189,VALID,137,VALID,0.542969,
2011-07-19, 02:49:04,VALID,916.465,VALID,0,VALID,97.2443,VALID,0.107441,VALID,19.0008,VALID,137,VALID,0.897656,
2011-07-19, 02:50:04,VALID,916.477,VALID,0,VALID,97.2367,VALID,0.107441,VALID,18.9604,VALID,132,VALID,0.529688,
2011-07-19, 02:51:04,VALID,916.513,VALID,0,VALID,97.2519,VALID,0.107441,VALID,18.9409,VALID,132,VALID,0.26875,
2011-07-19, 02:52:04,VALID,916.505,VALID,0,VALID,97.2595,VALID,0.107441,VALID,18.9604,VALID,130,VALID,0.277734,
2011-07-19, 02:53:04,VALID,916.508,VALID,0,VALID,97.2443,VALID,0.107441,VALID,18.9214,VALID,130,VALID,0.399609,
2011-07-19, 02:54:04,VALID,916.522,VALID,0,VALID,97.2672,VALID,0.107441,VALID,18.9019,VALID,131,VALID,0.627734,
2011-07-19, 02:55:04,VALID,916.537,VALID,0,VALID,97.2748,VALID,0.107441,VALID,18.9034,VALID,131,VALID,0.486719,
2011-07-19, 02:56:04,VALID,916.529,VALID,0,VALID,97.29,VALID,0.107441,VALID,18.8615,VALID,131,VALID,0.622266,
2011-07-19, 02:57:04,VALID,916.527,VALID,0,VALID,97.3053,VALID,0.107441,VALID,18.8824,VALID,131,VALID,0.791016,
2011-07-19, 02:58:04,VALID,916.519,VALID,0,VALID,97.3053,VALID,0.107441,VALID,18.8824,VALID,131,VALID,0.669531,
2011-07-19, 02:59:04,VALID,916.543,VALID,0,VALID,97.29,VALID,0.107441,VALID,18.8629,VALID,131,VALID,0.658984,
2011-07-19, 03:00:04,VALID,916.544,VALID,0,VALID,97.2977,VALID,0.107441,VALID,18.8434,VALID,131,VALID,0.38125,
2011-07-19, 03:01:04,VALID,916.562,VALID,0,VALID,97.2519,VALID,0.107441,VALID,18.8045,VALID,131,VALID,0.304688,
2011-07-19, 03:02:04,VALID,916.57,VALID,0,VALID,97.2824,VALID,0.107441,VALID,18.785,VALID,131,VALID,0.779688,
2011-07-19, 03:03:04,VALID,916.573,VALID,0,VALID,97.2977,VALID,0.107441,VALID,18.7655,VALID,131,VALID,0.520703,
2011-07-19, 03:04:04,VALID,916.566,VALID,0,VALID,97.3129,VALID,0.107441,VALID,18.8059,VALID,131,VALID,1.04648,
2011-07-19, 03:05:04,VALID,916.556,VALID,0,VALID,97.3586,VALID,0,VALID,18.7864,VALID,131,VALID,1.12031,
2011-07-19, 03:06:04,VALID,916.592,VALID,0,VALID,97.3663,VALID,0,VALID,18.8254,VALID,131,VALID,0.917188,
2011-07-19, 03:07:04,VALID,916.548,VALID,0,VALID,97.3053,VALID,0,VALID,18.8059,VALID,131,VALID,0.979688,
2011-07-19, 03:08:04,VALID,916.559,VALID,0,VALID,97.3205,VALID,0,VALID,18.7864,VALID,102,VALID,1.17969,
2011-07-19, 03:09:04,VALID,916.552,VALID,0,VALID,97.351,VALID,0,VALID,18.7864,VALID,98,VALID,0.947656,
2011-07-19, 03:10:04,VALID,916.528,VALID,0,VALID,97.3358,VALID,0,VALID,18.8073,VALID,117,VALID,0.873438,
2011-07-19, 03:11:04,VALID,916.551,VALID,0,VALID,97.3205,VALID,0,VALID,18.746,VALID,117,VALID,0.920313,
2011-07-19, 03:12:04,VALID,916.574,VALID,0,VALID,97.3205,VALID,0,VALID,18.7474,VALID,117,VALID,0.962891,
2011-07-19, 03:13:04,VALID,916.589,VALID,0,VALID,97.2824,VALID,0,VALID,18.7084,VALID,117,VALID,0.502344,
2011-07-19, 03:14:04,VALID,916.601,VALID,0,VALID,97.2977,VALID,0,VALID,18.6694,VALID,125,VALID,1.01953,
2011-07-19, 03:15:04,VALID,916.588,VALID,0,VALID,97.3205,VALID,0,VALID,18.6903,VALID,130,VALID,0.869141,
2011-07-19, 03:16:04,VALID,916.572,VALID,0,VALID,97.3358,VALID,0,VALID,18.6694,VALID,116,VALID,1.02734,
2011-07-19, 03:17:04,VALID,916.543,VALID,0,VALID,97.351,VALID,0,VALID,18.6694,VALID,106,VALID,0.823828,
2011-07-19, 03:18:04,VALID,916.502,VALID,0,VALID,97.412,VALID,0,VALID,18.7084,VALID,98,VALID,1.03398,
2011-07-19, 03:19:04,VALID,916.493,VALID,0,VALID,97.3663,VALID,0,VALID,18.6903,VALID,118,VALID,0.847656,
2011-07-19, 03:20:04,VALID,916.474,VALID,0,VALID,97.3586,VALID,0,VALID,18.6694,VALID,116,VALID,0.707422,
2011-07-19, 03:21:04,VALID,916.439,VALID,0,VALID,97.3891,VALID,0,VALID,18.6889,VALID,116,VALID,1.13125,
2011-07-19, 03:22:04,VALID,916.462,VALID,0,VALID,97.4044,VALID,0,VALID,18.6694,VALID,116,VALID,1.04219,
2011-07-19, 03:23:04,VALID,916.477,VALID,0,VALID,97.351,VALID,0,VALID,18.6499,VALID,116,VALID,0.707422,
2011-07-19, 03:24:04,VALID,916.465,VALID,0,VALID,97.4044,VALID,0,VALID,18.6499,VALID,116,VALID,0.873828,
2011-07-19, 03:25:04,VALID,916.504,VALID,0,VALID,97.3434,VALID,0,VALID,18.6109,VALID,116,VALID,1.02656,
2011-07-19, 03:26:04,VALID,916.484,VALID,0,VALID,97.3586,VALID,0,VALID,18.5914,VALID,116,VALID,0.878125,
2011-07-19, 03:27:04,VALID,916.476,VALID,0,VALID,97.3739,VALID,0,VALID,18.5929,VALID,103,VALID,1.325,
2011-07-19, 03:28:04,VALID,916.482,VALID,0,VALID,97.3968,VALID,0,VALID,18.5929,VALID,92,VALID,1.32891,
2011-07-19, 03:29:04,VALID,916.443,VALID,0,VALID,97.3968,VALID,0,VALID,18.5525,VALID,92,VALID,1.42383,
2011-07-19, 03:30:04,VALID,916.467,VALID,0,VALID,97.4425,VALID,0,VALID,18.572,VALID,93,VALID,1.31562,
2011-07-19, 03:31:04,VALID,916.45,VALID,0,VALID,97.4654,VALID,0,VALID,18.6124,VALID,106,VALID,0.790625,
2011-07-19, 03:32:04,VALID,916.463,VALID,0,VALID,97.473,VALID,0,VALID,18.6304,VALID,102,VALID,1.325,
2011-07-19, 03:33:04,VALID,916.454,VALID,0,VALID,97.4349,VALID,0,VALID,18.6109,VALID,100,VALID,1.0832,
2011-07-19, 03:34:04,VALID,916.465,VALID,0,VALID,97.4349,VALID,0,VALID,18.6109,VALID,100,VALID,1.09102,
2011-07-19, 03:35:04,VALID,916.439,VALID,0,VALID,97.4349,VALID,0,VALID,18.6319,VALID,100,VALID,1.20859,
2011-07-19, 03:36:04,VALID,916.453,VALID,0,VALID,97.473,VALID,0,VALID,18.6304,VALID,100,VALID,1.4168,
2011-07-19, 03:37:04,VALID,916.451,VALID,0,VALID,97.473,VALID,0,VALID,18.6109,VALID,100,VALID,0.941016,
2011-07-19, 03:38:04,VALID,916.467,VALID,0,VALID,97.4882,VALID,0,VALID,18.6304,VALID,105,VALID,1.3418,
2011-07-19, 03:39:04,VALID,916.464,VALID,0,VALID,97.4349,VALID,0,VALID,18.6109,VALID,105,VALID,1.05898,
2011-07-19, 03:40:04,VALID,916.475,VALID,0,VALID,97.4349,VALID,0,VALID,18.5914,VALID,105,VALID,1.03789,
2011-07-19, 03:41:04,VALID,916.466,VALID,0,VALID,97.4654,VALID,0,VALID,18.6124,VALID,105,VALID,1.04766,
2011-07-19, 03:42:04,VALID,916.492,VALID,0,VALID,97.4959,VALID,0,VALID,18.5914,VALID,99,VALID,1.47422,